N151ND KODO-41TT

Flight info

Callsign N151ND
Flight time 0h 40m
Altitude 15500
Route DCT
Aircraft B350/L-SBDFGRYZ/LB1

Departure

Time 2026-04-13 23:38
Airport Odessa Schlemeyer Field (KODO)

Arrival

Time 2026-04-14 00:18
Airport Rancho Paraiso Airport (41TT)
Time Latitude Longitude Altitude Speed Heading
2026-04-13 23:26 31.91893 -102.39181 2974 ft 0 kts 207°
2026-04-13 23:32 31.91874 -102.39167 2975 ft 7 kts 101°
2026-04-13 23:33 31.91921 -102.39118 2976 ft 12 kts 30°
2026-04-13 23:33 31.91999 -102.39075 2978 ft 11 kts 13°
2026-04-13 23:33 31.92059 -102.39066 2978 ft 8 kts 55°
2026-04-13 23:33 31.92078 -102.38994 2981 ft 10 kts 74°
2026-04-13 23:34 31.92099 -102.38921 2982 ft 9 kts 49°
2026-04-13 23:34 31.92165 -102.38874 2981 ft 13 kts 30°
2026-04-13 23:34 31.92246 -102.38819 2983 ft 13 kts 30°
2026-04-13 23:34 31.92319 -102.38770 2985 ft 13 kts 29°
2026-04-13 23:35 31.92404 -102.38714 2983 ft 15 kts 29°
2026-04-13 23:35 31.92466 -102.38672 2985 ft 15 kts 30°
2026-04-13 23:35 31.92578 -102.38599 2993 ft 14 kts 29°
2026-04-13 23:35 31.92666 -102.38540 2999 ft 15 kts 29°
2026-04-13 23:36 31.92754 -102.38481 3006 ft 10 kts 29°
2026-04-13 23:36 31.92796 -102.38446 3009 ft 6 kts 78°
2026-04-13 23:36 31.92779 -102.38393 3010 ft 8 kts 121°
2026-04-13 23:36 31.92748 -102.38375 3009 ft 4 kts 207°
2026-04-13 23:37 31.92744 -102.38377 3009 ft 0 kts 208°
2026-04-13 23:37 31.92689 -102.38414 3004 ft 32 kts 211°
2026-04-13 23:37 31.92283 -102.38685 2987 ft 101 kts 209°
2026-04-13 23:37 31.91810 -102.39007 3041 ft 128 kts 213°
2026-04-13 23:38 31.91556 -102.39189 3145 ft 135 kts 212°
2026-04-13 23:38 31.89719 -102.40187 4119 ft 160 kts 184°
2026-04-13 23:38 31.88613 -102.39717 4493 ft 182 kts 146°
2026-04-13 23:38 31.87816 -102.38512 5047 ft 193 kts 118°
2026-04-13 23:39 31.87389 -102.36985 5572 ft 199 kts 108°
2026-04-13 23:39 31.87091 -102.35400 6222 ft 197 kts 104°
2026-04-13 23:39 31.86838 -102.33800 6775 ft 203 kts 104°
2026-04-13 23:39 31.86582 -102.32153 7330 ft 205 kts 104°
2026-04-13 23:40 31.86300 -102.30504 7919 ft 206 kts 105°
2026-04-13 23:40 31.85999 -102.28841 8461 ft 209 kts 105°
2026-04-13 23:40 31.85609 -102.27225 9026 ft 207 kts 117°
2026-04-13 23:40 31.84905 -102.25747 9595 ft 208 kts 126°
2026-04-13 23:41 31.84092 -102.24314 10095 ft 213 kts 128°
2026-04-13 23:41 31.83232 -102.22828 10470 ft 222 kts 128°
2026-04-13 23:41 31.82366 -102.21317 10984 ft 223 kts 128°
2026-04-13 23:41 31.81498 -102.19793 11505 ft 225 kts 129°
2026-04-13 23:42 31.80621 -102.18248 12029 ft 228 kts 129°
2026-04-13 23:42 31.79733 -102.16681 12541 ft 231 kts 130°
2026-04-13 23:42 31.78852 -102.15125 13085 ft 232 kts 130°
2026-04-13 23:42 31.78244 -102.14050 13452 ft 234 kts 131°
2026-04-13 23:43 31.77040 -102.11923 14105 ft 238 kts 131°
2026-04-13 23:43 31.76116 -102.10293 14553 ft 241 kts 131°
2026-04-13 23:43 31.75180 -102.08640 15013 ft 245 kts 131°
2026-04-13 23:43 31.74226 -102.06958 15368 ft 254 kts 132°
2026-04-13 23:44 31.73192 -102.05160 15392 ft 274 kts 131°
2026-04-13 23:44 31.72111 -102.03282 15401 ft 287 kts 131°
2026-04-13 23:44 31.70979 -102.01298 15404 ft 296 kts 131°
2026-04-13 23:44 31.69820 -101.99254 15405 ft 303 kts 130°
2026-04-13 23:45 31.68643 -101.97178 15397 ft 308 kts 130°
2026-04-13 23:45 31.67447 -101.95068 15391 ft 311 kts 130°
2026-04-13 23:45 31.66244 -101.92944 15385 ft 313 kts 130°
2026-04-13 23:45 31.65036 -101.90809 15391 ft 315 kts 130°
2026-04-13 23:46 31.63818 -101.88661 15389 ft 316 kts 130°
2026-04-13 23:46 31.62597 -101.86513 15393 ft 316 kts 130°
2026-04-13 23:46 31.61787 -101.85091 15393 ft 317 kts 130°
2026-04-13 23:46 31.60165 -101.82243 15399 ft 317 kts 130°
2026-04-13 23:47 31.58939 -101.80091 15400 ft 317 kts 130°
2026-04-13 23:47 31.57713 -101.77942 15402 ft 317 kts 130°
2026-04-13 23:47 31.56485 -101.75788 15407 ft 317 kts 130°
2026-04-13 23:47 31.55257 -101.73636 15400 ft 317 kts 130°
2026-04-13 23:48 31.54032 -101.71490 15405 ft 316 kts 130°
2026-04-13 23:48 31.52807 -101.69344 15407 ft 316 kts 130°
2026-04-13 23:48 31.51601 -101.67232 15412 ft 316 kts 130°
2026-04-13 23:48 31.50376 -101.65091 15417 ft 315 kts 130°
2026-04-13 23:49 31.49152 -101.62954 15419 ft 315 kts 130°
2026-04-13 23:49 31.47925 -101.60813 15420 ft 315 kts 130°
2026-04-13 23:49 31.46700 -101.58679 15428 ft 315 kts 130°
2026-04-13 23:49 31.45490 -101.56570 15421 ft 315 kts 130°
2026-04-13 23:50 31.44662 -101.55130 15428 ft 315 kts 130°
2026-04-13 23:50 31.43037 -101.52304 15422 ft 316 kts 130°
2026-04-13 23:50 31.41809 -101.50169 15408 ft 316 kts 130°
2026-04-13 23:50 31.40578 -101.48032 15388 ft 316 kts 130°
2026-04-13 23:51 31.39345 -101.45889 15385 ft 316 kts 130°
2026-04-13 23:51 31.38117 -101.43754 15384 ft 316 kts 130°
2026-04-13 23:51 31.37305 -101.42343 15382 ft 315 kts 130°
2026-04-13 23:51 31.35670 -101.39499 15385 ft 315 kts 130°
2026-04-13 23:52 31.34461 -101.37397 15387 ft 315 kts 130°
2026-04-13 23:52 31.33237 -101.35276 15384 ft 315 kts 130°
2026-04-13 23:52 31.32011 -101.33153 15385 ft 315 kts 130°
2026-04-13 23:52 31.30782 -101.31026 15390 ft 315 kts 130°
2026-04-13 23:53 31.29556 -101.28908 15395 ft 315 kts 130°
2026-04-13 23:53 31.28327 -101.26786 15391 ft 314 kts 130°
2026-04-13 23:53 31.27100 -101.24664 15392 ft 314 kts 129°
2026-04-13 23:53 31.25878 -101.22549 15395 ft 314 kts 129°
2026-04-13 23:54 31.24651 -101.20434 15396 ft 314 kts 129°
2026-04-13 23:54 31.23428 -101.18320 15392 ft 314 kts 129°
2026-04-13 23:54 31.22201 -101.16206 15396 ft 314 kts 129°
2026-04-13 23:54 31.20987 -101.14115 15398 ft 314 kts 129°
2026-04-13 23:55 31.19760 -101.12002 15395 ft 314 kts 129°
2026-04-13 23:55 31.18932 -101.10576 15397 ft 314 kts 129°
2026-04-13 23:55 31.17302 -101.07770 15398 ft 314 kts 129°
2026-04-13 23:55 31.16073 -101.05654 15400 ft 314 kts 129°
2026-04-13 23:56 31.14844 -101.03543 15396 ft 314 kts 129°
2026-04-13 23:56 31.13630 -101.01455 15401 ft 314 kts 129°
2026-04-13 23:56 31.12404 -100.99351 15399 ft 314 kts 129°
2026-04-13 23:56 31.11589 -100.97950 15398 ft 314 kts 129°
2026-04-13 23:57 31.09946 -100.95130 15402 ft 314 kts 129°
2026-04-13 23:57 31.08718 -100.93025 15401 ft 314 kts 129°
2026-04-13 23:57 31.07902 -100.91626 15399 ft 314 kts 129°
2026-04-13 23:57 31.06260 -100.88811 15402 ft 314 kts 129°
2026-04-13 23:58 31.05446 -100.87418 15398 ft 314 kts 129°
2026-04-13 23:58 31.03816 -100.84631 15401 ft 314 kts 129°
2026-04-13 23:58 31.02586 -100.82529 15404 ft 314 kts 129°
2026-04-13 23:58 31.01353 -100.80423 15398 ft 313 kts 129°
2026-04-13 23:59 31.00124 -100.78322 15405 ft 313 kts 129°
2026-04-13 23:59 30.98896 -100.76224 15406 ft 314 kts 129°
2026-04-13 23:59 30.98078 -100.74831 15407 ft 314 kts 129°
2026-04-13 23:59 30.96845 -100.72726 15408 ft 314 kts 129°
2026-04-14 00:00 30.95612 -100.70626 15406 ft 314 kts 129°
2026-04-14 00:00 30.94376 -100.68519 15402 ft 314 kts 129°
2026-04-14 00:00 30.93145 -100.66421 15414 ft 314 kts 129°
2026-04-14 00:00 30.91910 -100.64316 15421 ft 314 kts 129°
2026-04-14 00:01 30.90674 -100.62215 15424 ft 314 kts 129°
2026-04-14 00:01 30.89438 -100.60115 15431 ft 314 kts 129°
2026-04-14 00:01 30.88199 -100.58013 15431 ft 315 kts 129°
2026-04-14 00:01 30.86975 -100.55935 15436 ft 315 kts 129°
2026-04-14 00:02 30.86136 -100.54512 15434 ft 315 kts 129°
2026-04-14 00:02 30.84495 -100.51728 15437 ft 315 kts 129°
2026-04-14 00:02 30.83254 -100.49622 15438 ft 315 kts 129°
2026-04-14 00:02 30.82011 -100.47513 15440 ft 315 kts 129°
2026-04-14 00:03 30.80770 -100.45411 15441 ft 315 kts 129°
2026-04-14 00:03 30.79547 -100.43340 15434 ft 315 kts 129°
2026-04-14 00:03 30.78303 -100.41237 15433 ft 315 kts 129°
2026-04-14 00:03 30.77063 -100.39141 15430 ft 315 kts 129°
2026-04-14 00:04 30.75820 -100.37039 15429 ft 315 kts 129°
2026-04-14 00:04 30.74571 -100.34933 15427 ft 315 kts 129°
2026-04-14 00:04 30.73327 -100.32834 15418 ft 316 kts 129°
2026-04-14 00:04 30.72078 -100.30725 15413 ft 316 kts 129°
2026-04-14 00:05 30.70831 -100.28624 15401 ft 316 kts 129°
2026-04-14 00:05 30.69581 -100.26516 15399 ft 316 kts 129°
2026-04-14 00:05 30.68349 -100.24440 15389 ft 316 kts 129°
2026-04-14 00:05 30.67100 -100.22336 15392 ft 316 kts 128°
2026-04-14 00:06 30.65850 -100.20229 15384 ft 316 kts 128°
2026-04-14 00:06 30.64602 -100.18128 15387 ft 316 kts 128°
2026-04-14 00:06 30.63353 -100.16029 15394 ft 316 kts 128°
2026-04-14 00:06 30.62104 -100.13928 15390 ft 316 kts 128°
2026-04-14 00:07 30.60869 -100.11853 15400 ft 316 kts 128°
2026-04-14 00:07 30.59619 -100.09756 15413 ft 316 kts 128°
2026-04-14 00:07 30.58368 -100.07658 15418 ft 316 kts 128°
2026-04-14 00:07 30.57112 -100.05551 15423 ft 316 kts 128°
2026-04-14 00:08 30.55857 -100.03449 15433 ft 316 kts 128°
2026-04-14 00:08 30.54612 -100.01369 15327 ft 319 kts 128°
2026-04-14 00:08 30.53325 -99.99242 15017 ft 323 kts 129°
2026-04-14 00:08 30.52012 -99.97098 14596 ft 329 kts 128°
2026-04-14 00:09 30.50688 -99.94912 14183 ft 332 kts 128°
2026-04-14 00:09 30.49398 -99.92744 13765 ft 322 kts 128°
2026-04-14 00:09 30.48142 -99.90619 13308 ft 317 kts 128°
2026-04-14 00:09 30.46921 -99.88553 12860 ft 312 kts 128°
2026-04-14 00:10 30.45704 -99.86495 12407 ft 308 kts 128°
2026-04-14 00:10 30.44885 -99.85118 12111 ft 306 kts 128°
2026-04-14 00:10 30.43291 -99.82448 11534 ft 302 kts 128°
2026-04-14 00:10 30.42094 -99.80450 11099 ft 300 kts 128°
2026-04-14 00:11 30.40910 -99.78479 10672 ft 297 kts 128°
2026-04-14 00:11 30.39732 -99.76518 10245 ft 295 kts 128°
2026-04-14 00:11 30.38568 -99.74578 9816 ft 292 kts 128°
2026-04-14 00:11 30.37408 -99.72652 9352 ft 290 kts 128°
2026-04-14 00:12 30.36258 -99.70741 8896 ft 288 kts 128°
2026-04-14 00:12 30.35133 -99.68871 8456 ft 285 kts 128°
2026-04-14 00:12 30.34002 -99.66993 8010 ft 283 kts 128°
2026-04-14 00:12 30.32882 -99.65131 7569 ft 281 kts 127°
2026-04-14 00:13 30.31773 -99.63293 7141 ft 271 kts 128°
2026-04-14 00:13 30.30743 -99.61565 6708 ft 252 kts 127°
2026-04-14 00:13 30.29794 -99.59926 6261 ft 238 kts 127°
2026-04-14 00:13 30.28883 -99.58379 5813 ft 228 kts 128°
2026-04-14 00:14 30.27987 -99.56905 5373 ft 220 kts 128°
2026-04-14 00:14 30.27112 -99.55480 4928 ft 214 kts 128°
2026-04-14 00:14 30.26462 -99.53954 4482 ft 213 kts 107°
2026-04-14 00:14 30.26216 -99.52312 4171 ft 207 kts 105°
2026-04-14 00:15 30.25906 -99.50686 3889 ft 207 kts 108°
2026-04-14 00:15 30.25560 -99.49085 3604 ft 200 kts 108°
2026-04-14 00:15 30.25254 -99.47575 3539 ft 186 kts 108°
2026-04-14 00:15 30.24962 -99.46127 3529 ft 184 kts 108°
2026-04-14 00:16 30.24670 -99.44688 3518 ft 183 kts 107°
2026-04-14 00:16 30.24386 -99.43265 3523 ft 178 kts 107°
2026-04-14 00:16 30.24020 -99.41972 3519 ft 157 kts 125°
2026-04-14 00:16 30.23336 -99.41102 3423 ft 143 kts 147°
2026-04-14 00:17 30.22769 -99.40728 3264 ft 140 kts 159°
2026-04-14 00:17 30.21631 -99.40499 2769 ft 113 kts 179°
2026-04-14 00:17 30.20894 -99.40562 2530 ft 103 kts 180°
2026-04-14 00:17 30.20159 -99.40603 2391 ft 106 kts 181°
2026-04-14 00:18 30.19426 -99.40655 2277 ft 104 kts 180°
2026-04-14 00:18 30.18738 -99.40712 2120 ft 93 kts 181°
2026-04-14 00:18 30.18200 -99.40743 2107 ft 62 kts 184°
2026-04-14 00:18 30.17949 -99.40761 2105 ft 24 kts 183°
2026-04-14 00:19 30.17839 -99.40770 2106 ft 13 kts 184°
2026-04-14 00:19 30.17773 -99.40774 2106 ft 11 kts 183°
2026-04-14 00:19 30.17711 -99.40778 2105 ft 6 kts 183°
2026-04-14 00:19 30.17667 -99.40777 2104 ft 6 kts 140°
2026-04-14 00:20 30.17663 -99.40739 2104 ft 3 kts 29°
2026-04-14 00:20 30.17669 -99.40746 2104 ft 0 kts 273°